Weather History for Valparaiso, FL

Change the Weather History Date:

Friday, April 5, 2013

  Actual Average Record
Temperature  
Mean Temperature 57 °F -  
Max Temperature 64 °F 76 °F 88 °F (1967)
Min Temperature 50 °F 48 °F 38 °F (1951)
Degree Days  
Heating Degree Days 8    
Growing Degree Days 7 (Base 50)    
Moisture  
Dew Point 51 °F    
Average Humidity 81    
Maximum Humidity 100    
Minimum Humidity 52    
Precipitation  
Precipitation 0.00 in - - ()
Sea Level Pressure  
Sea Level Pressure 29.99 in    
Wind  
Wind Speed 10 mph (NNW)    
Max Wind Speed 18 mph    
Max Gust Speed 22 mph    
Visibility 9 miles    
Events Rain    
Averages and records for this station are not official NWS values.
T = Trace of Precipitation, MM = Missing Value Source: NWS Daily Summary

Daily Weather History Graph

Daily Weather History Graph

Search for Another Location

Airport:

Trip Planner

Search our weather history database for the weather conditions in past years. The results will help you decide how hot, cold, wet, or windy it might be!

Date:

Astronomy

Apr. 05, 2013 Rise Set
Actual Time 6:30 AM CDT 7:07 PM CDT
Civil Twilight 6:05 AM CDT 7:32 PM CDT
Nautical Twilight 5:37 AM CDT 8:00 PM CDT
Astronomical Twilight 5:08 AM CDT 8:29 PM CDT
Moon 3:17 AM CDT (4/5) 2:48 PM CDT (4/5)
Length of Visible Light 13h 26m
Length of Day
12h 37m
Waning Crescent, 23% of the Moon is Illuminated
Apr 5
Waning Crescent
Apr 10
New
Apr 18
First Quarter
Apr 25
Full
May 2
Last Quarter

Hourly Weather History & Observations

Time (CDT) Temp. Dew Point Humidity Pressure Visibility Wind Dir Wind Speed Gust Speed Precip Events Conditions
12:44 AM 62.6 °F 59.0 °F 88% 29.88 in 10.0 mi NW 10.4 mph - N/A   Overcast
12:55 AM 61.5 °F 58.1 °F 89% 29.91 in 10.0 mi WNW 8.1 mph 17.3 mph N/A   Overcast
1:41 AM 59.0 °F 57.2 °F 94% 29.89 in 10.0 mi NW 5.8 mph - N/A   Overcast
1:55 AM 59.4 °F 56.5 °F 90% 29.92 in 10.0 mi WNW 6.9 mph - N/A   Overcast
2:11 AM 59.0 °F 57.2 °F 94% 29.90 in 10.0 mi WNW 8.1 mph - N/A   Overcast
2:55 AM 57.9 °F 55.9 °F 93% 29.91 in 10.0 mi WNW 8.1 mph - N/A   Overcast
3:19 AM 57.2 °F 55.4 °F 94% 29.89 in 10.0 mi NW 9.2 mph - N/A   Overcast
3:55 AM 56.8 °F 54.5 °F 92% 29.91 in 10.0 mi NW 6.9 mph - N/A   Overcast
4:31 AM 57.2 °F 55.4 °F 94% 29.91 in 5.0 mi NW 5.8 mph - N/A   Light Drizzle
4:55 AM 56.5 °F 55.0 °F 95% 29.94 in 4.0 mi NNW 8.1 mph - 0.00 in   Light Drizzle
5:17 AM 55.4 °F 55.4 °F 100% 29.92 in 6.0 mi NNW 10.4 mph - N/A   Light Drizzle
5:55 AM 55.8 °F 54.7 °F 96% 29.96 in 7.0 mi NNW 9.2 mph - 0.00 in Rain Light Rain
6:05 AM 55.4 °F 53.6 °F 94% 29.94 in 10.0 mi NNW 10.4 mph - N/A   Overcast
6:19 AM 55.4 °F 53.6 °F 94% 29.95 in 7.0 mi NNW 13.8 mph - N/A Rain Light Rain
6:37 AM 55.4 °F 53.6 °F 94% 29.95 in 10.0 mi NW 10.4 mph - N/A Rain Light Rain
6:43 AM 55.4 °F 53.6 °F 94% 29.95 in 10.0 mi NNW 11.5 mph - N/A   Overcast
6:55 AM 55.0 °F 53.1 °F 93% 29.98 in 10.0 mi NNW 12.7 mph - 0.00 in   Mostly Cloudy
7:55 AM 55.0 °F 51.8 °F 89% 30.01 in 10.0 mi NNW 12.7 mph - N/A   Mostly Cloudy
8:25 AM 55.4 °F 51.8 °F 88% 30.00 in 10.0 mi North 17.3 mph 19.6 mph N/A   Mostly Cloudy
8:55 AM 55.4 °F 49.6 °F 81% 30.01 in 10.0 mi North 15.0 mph 21.9 mph N/A   Overcast
9:55 AM 55.4 °F 48.4 °F 77% 30.04 in 10.0 mi North 13.8 mph - N/A   Overcast
10:55 AM 56.1 °F 47.3 °F 72% 30.06 in 10.0 mi NNW 12.7 mph - N/A   Overcast
11:17 AM 57.2 °F 46.4 °F 67% 30.05 in 10.0 mi NNW 12.7 mph - N/A   Overcast
11:55 AM 57.0 °F 46.6 °F 68% 30.05 in 10.0 mi North 16.1 mph - N/A   Overcast
12:37 PM 57.2 °F 46.4 °F 67% 30.05 in 10.0 mi North 16.1 mph - N/A   Overcast
12:55 PM 56.7 °F 46.8 °F 69% 30.05 in 10.0 mi NNW 13.8 mph - N/A   Overcast
1:55 PM 58.1 °F 46.8 °F 66% 30.04 in 10.0 mi North 16.1 mph 19.6 mph N/A   Overcast
2:55 PM 59.7 °F 46.6 °F 62% 30.03 in 10.0 mi North 12.7 mph 21.9 mph N/A   Mostly Cloudy
3:46 PM 60.8 °F 46.4 °F 59% 30.01 in 10.0 mi North 18.4 mph - N/A   Mostly Cloudy
3:55 PM 61.2 °F 46.8 °F 59% 30.01 in 10.0 mi North 11.5 mph - N/A   Mostly Cloudy
4:55 PM 64.2 °F 46.8 °F 53% 30.03 in 10.0 mi North 12.7 mph - N/A   Scattered Clouds
5:55 PM 64.6 °F 46.6 °F 52% 30.03 in 10.0 mi North 11.5 mph - N/A   Partly Cloudy
6:55 PM 62.1 °F 46.4 °F 56% 30.04 in 10.0 mi North 9.2 mph - N/A   Partly Cloudy
7:55 PM 57.9 °F 46.8 °F 66% 30.07 in 10.0 mi NNW 2.3 mph - N/A   Clear
8:55 PM 55.8 °F 47.3 °F 73% 30.09 in 10.0 mi NW 1.2 mph - N/A   Clear
9:55 PM 52.2 °F 46.6 °F 81% 30.09 in 10.0 mi WNW 2.3 mph - N/A   Clear
10:55 PM 50.7 °F 45.9 °F 83% 30.11 in 10.0 mi NW 1.2 mph - N/A   Clear
11:55 PM 50.4 °F 45.7 °F 84% 30.11 in 10.0 mi NW 2.3 mph - N/A   Clear